Montrose, CO

5:45 AM MDT on April 27, 2017 (GMT -0600)
Montrose Regional

Weather History for KMTJ - July, 2013

Change the Weather History Date:

Friday, July 19, 2013

  Actual Average Record
Temperature  
Mean Temperature 75 °F 74 °F  
Max Temperature 88 °F 90 °F 100 °F (1998)
Min Temperature 61 °F 58 °F 51 °F (2000)
Degree Days  
Heating Degree Days 0 0  
Month to date heating degree days 0 0  
Since 1 June heating degree days 9 39  
Since 1 July heating degree days 0 0  
Cooling Degree Days 10 9  
Month to date cooling degree days 228 163  
Year to date cooling degree days 492 315  
Since 1 June cooling degree days 467 298  
Growing Degree Days 24 (Base 50)    
Moisture  
Dew Point 54 °F    
Average Humidity 58    
Maximum Humidity 84    
Minimum Humidity 32    
Precipitation  
Precipitation 0.00 in 0.02 in 0.19 in (2016)
Month to date precipitation 1.24 0.48  
Year to date precipitation 3.89 5.55  
Sea Level Pressure  
Sea Level Pressure 29.97 in    
Wind  
Wind Speed 9 mph (East)    
Max Wind Speed 33 mph    
Max Gust Speed 41 mph    
Visibility 10 miles    
Events Thunderstorm    
T = Trace of Precipitation, MM = Missing Value Source: NWS Daily Summary

Daily Weather History Graph

Daily Weather History Graph

Search for Another Location

Airport or City:

Trip Planner

Search our weather history database for the weather conditions in past years. The results will help you decide how hot, cold, wet, or windy it might be!

Date:

Astronomy

Jul. 19, 2013 Rise Set
Actual Time 6:02 AM MDT 8:32 PM MDT
Civil Twilight 5:32 AM MDT 9:02 PM MDT
Nautical Twilight 4:54 AM MDT 9:40 PM MDT
Astronomical Twilight 4:12 AM MDT 10:22 PM MDT
Moon 5:38 PM MDT (7/19) 2:46 AM MDT (7/19)
Length of Visible Light 15h 30m
Length of Day
14h 29m
Waxing Gibbous, 87% of the Moon is Illuminated
Jul 19
Waxing Gibbous
Jul 22
Full
Jul 29
Last Quarter
Aug 6
New
Aug 14
First Quarter

Hourly Weather History & Observations

Time (MDT) Temp. Heat Index Dew Point Humidity Pressure Visibility Wind Dir Wind Speed Gust Speed Precip Events Conditions
12:53 AM 64.0 °F - 59.0 °F 84% 30.06 in 10.0 mi SE 5.8 mph - N/A   Clear
1:53 AM 66.0 °F - 57.0 °F 73% 30.01 in 10.0 mi SSE 13.8 mph 19.6 mph N/A   Partly Cloudy
2:53 AM 64.9 °F - 55.9 °F 73% 29.98 in 10.0 mi ESE 10.4 mph - N/A   Scattered Clouds
3:53 AM 66.0 °F - 53.1 °F 63% 29.96 in 10.0 mi ESE 10.4 mph - N/A   Clear
4:53 AM 63.0 °F - 57.0 °F 81% 29.98 in 10.0 mi West 3.5 mph - N/A   Partly Cloudy
5:53 AM 62.1 °F - 57.0 °F 84% 30.02 in 10.0 mi NNE 3.5 mph - N/A   Clear
6:53 AM 62.1 °F - 55.0 °F 78% 30.06 in 10.0 mi Calm Calm - N/A   Clear
7:53 AM 66.0 °F - 55.0 °F 68% 30.06 in 10.0 mi SE 8.1 mph - N/A   Clear
8:53 AM 68.0 °F - 55.0 °F 63% 30.06 in 10.0 mi Variable 3.5 mph - N/A   Clear
9:53 AM 73.0 °F - 54.0 °F 51% 30.04 in 10.0 mi Calm Calm - N/A   Clear
10:53 AM 75.0 °F - 55.9 °F 51% 30.02 in 10.0 mi NNW 4.6 mph - N/A   Clear
11:53 AM 77.0 °F - 57.0 °F 50% 30.01 in 10.0 mi NW 4.6 mph - N/A   Clear
12:53 PM 80.1 °F 80.1 °F 55.0 °F 42% 29.97 in 10.0 mi Variable 3.5 mph - N/A   Clear
1:53 PM 82.0 °F 81.6 °F 55.9 °F 41% 29.93 in 10.0 mi North 9.2 mph - N/A   Clear
2:53 PM 84.0 °F - 51.1 °F 32% 29.89 in 10.0 mi NNW 8.1 mph - N/A   Clear
3:53 PM 86.0 °F 84.0 °F 53.1 °F 32% 29.86 in 10.0 mi NW 6.9 mph - N/A   Clear
4:53 PM 86.0 °F 84.0 °F 53.1 °F 32% 29.84 in 10.0 mi West 9.2 mph - N/A   Clear
5:19 PM 87.8 °F - 51.8 °F 29% 30.10 in 10.0 mi WSW 4.6 mph - N/A Thunderstorm Clear
5:47 PM 78.8 °F - 53.6 °F 42% 30.12 in 5.0 mi East 18.4 mph 27.6 mph N/A   Haze
5:53 PM 78.1 °F - 53.1 °F 42% 29.89 in 10.0 mi East 20.7 mph 33.4 mph N/A   Overcast
6:53 PM 75.9 °F - 54.0 °F 46% 29.91 in 10.0 mi SE 20.7 mph 33.4 mph N/A   Clear
7:53 PM 77.0 °F - 51.1 °F 40% 29.90 in 10.0 mi East 6.9 mph - N/A   Clear
8:53 PM 73.0 °F - 52.0 °F 48% 29.92 in 10.0 mi East 11.5 mph - N/A   Clear
9:53 PM 72.0 °F - 53.1 °F 51% 29.91 in 10.0 mi ESE 15.0 mph - N/A   Clear
10:53 PM 71.1 °F - 53.1 °F 53% 29.94 in 10.0 mi East 18.4 mph - N/A   Partly Cloudy
11:53 PM 72.0 °F - 52.0 °F 49% 29.91 in 10.0 mi East 9.2 mph - N/A   Clear